User: anonymous   Login
Location: Valdosta
(30.8330°N, 83.2790°W)
Time: 11:11:27
(UTC-05:00)
Language:

Uribyol 2 - Orbit

View from above orbital plane
View from above orbital plane
View from above satellite
View from above satellite

Ground track
Ground track

The orbit data is extracted from the following two-line orbital elements,

1 22828U 93061F   14329.85871827  .00000149  00000-0  74522-4 0  7677
2 22828 098.6689 274.6627 0010750 142.5665 217.6268 14.30392388 72356
Epoch (UTC): 25 November 2014 20:36:33
Eccentricity: 0.0010750
inclination: 98.6689°
perigee height: 783 km
apogee height: 798 km
right ascension of ascending node: 274.6627°
argument of perigee: 142.5665°
revolutions per day: 14.30392388
mean anomaly at epoch: 217.6268°
orbit number at epoch: 7235

The dashed part of the orbit path shows where the satellite is in the earth's shadow,  

DLR